Regional Weather Roundup
Issued by NWS

Home | Current Version | Previous Version | Graphics & Text | Print | Product List | Glossary On
Versions: 1 2 3 4 5 6 7 8 9 10 11 12 13 14 15 16 17 18 19 20 21 22 23 24 25 26 27 28 29 30 31 32 33 34 35 36 37 38 39 40 41 42 43 44 45 46 47 48 49 50
000
ASUS43 KBIS 020602
RWRND

NORTH DAKOTA REGIONAL WEATHER ROUNDUP
NATIONAL WEATHER SERVICE BISMARCK ND
100 AM CDT SUN AUG 02 2015

NOTE: "FAIR" INDICATES FEW OR NO CLOUDS BELOW 12,000 FEET WITH NO
SIGNIFICANT WEATHER AND/OR OBSTRUCTIONS TO VISIBILITY.


NDZ001>003-009>011-017-020700-
NORTHWEST NORTH DAKOTA

CITY           SKY/WX    TMP DP  RH WIND       PRES   REMARKS
WILLISTON      CLEAR     68  54  60 N10       29.87R
6HR MIN TEMP:  68; 6HR MAX TEMP:  97;

MINOT          CLEAR     65  55  70 NW12      29.78R
MINOT AFB      CLEAR     67  60  78 NW10      29.78R
$$

NDZ018>021-031>035-040>046-020700-
SOUTHWEST NORTH DAKOTA

CITY           SKY/WX    TMP DP  RH WIND       PRES   REMARKS
BISMARCK       CLEAR     68  55  63 W6        29.73F
6HR MIN TEMP:  68; 6HR MAX TEMP:  90;

DICKINSON      CLEAR     65  46  50 NW10      29.84R
GARRISON         N/A     69  55  60 N22G32    29.76R
6HR MIN TEMP:  65; 6HR MAX TEMP:  82;

HETTINGER ARPT CLEAR     57  46  66 CALM      29.87R
$$

NDZ004>008-012>016-024-026-027-054-020700-
NORTHEAST NORTH DAKOTA

CITY           SKY/WX    TMP DP  RH WIND       PRES   REMARKS
GRAND FORKS    MOCLDY    68  62  81 CALM      29.65R
GRND FRKS AFB  MOCLDY    66  62  86 NW5       29.67R
DEVILS LAKE    PTCLDY    72  57  60 NE18      29.70R
$$

NDZ022-023-025-028>030-036>039-047>053-020700-
SOUTHEAST NORTH DAKOTA

CITY           SKY/WX    TMP DP  RH WIND       PRES   REMARKS
FARGO          CLEAR     73  65  75 CALM      29.65S
6HR MIN TEMP:  68; 6HR MAX TEMP:  86;

JAMESTOWN      CLEAR     71  66  84 S8        29.68F
$$



USA.gov is the U.S. government's official web portal to all federal, state and local government web resources and services.